GFSCGP_sfc_thetae_123.txt.gz
Theta_e
294 289 286 289 291 290 289 286 286 288 292 290 289 290 292 293 293 293 294 294 294 295 298 300 305 313 319 322 325 327 327 326 327 328 329 329 328 329 329 328 328 327 326 321
289 286 291 293 292 290 288 286 284 289 292 290 288 289 291 293 294 294 295 294 295 295 296 298 299 299 302 306 317 324 328 327 327 327 329 329 329 328 330 330 328 327 326 323
287 290 294 292 289 288 286 286 285 287 289 288 286 285 287 291 293 294 294 295 295 295 296 297 300 300 301 300 300 303 318 327 327 327 327 325 327 325 326 327 328 327 326 324
289 292 292 289 289 289 285 289 289 288 284 280 285 278 284 288 290 291 293 293 294 296 297 300 302 302 303 306 308 306 304 308 327 326 326 325 324 323 326 327 327 327 326 324
287 289 288 288 290 290 287 290 288 287 283 281 280 279 283 286 288 290 291 292 292 295 297 299 300 304 305 308 307 306 303 302 307 326 326 325 325 326 325 325 325 325 325 326
289 291 291 290 290 291 291 288 288 285 282 277 280 280 280 284 288 289 290 291 295 296 297 298 300 303 304 307 307 307 300 300 305 321 322 324 325 323 322 323 324 324 324 323
286 287 289 291 288 290 289 284 277 276 276 276 281 279 283 287 289 290 292 293 294 295 296 297 298 299 300 302 306 308 307 308 312 314 318 322 319 323 322 322 323 322 321 319
282 280 287 290 289 287 286 285 279 274 274 276 279 278 284 289 288 290 293 294 294 294 296 297 298 298 300 300 305 306 307 307 309 310 311 313 315 319 319 320 320 319 320 318
282 282 288 290 290 291 286 283 287 279 270 275 278 282 288 290 288 290 292 294 294 295 296 296 298 299 299 300 301 303 304 305 307 308 308 308 311 313 312 312 312 311 310 308
287 282 287 288 290 289 287 289 281 280 270 270 275 278 281 285 288 288 292 292 293 295 295 295 296 297 298 299 299 301 301 301 302 304 304 306 309 310 310 309 307 306 306 305
288 285 283 287 285 284 285 283 284 284 280 275 272 277 284 287 289 289 290 293 293 294 294 294 295 295 295 296 296 297 298 299 300 301 301 301 301 301 301 301 302 302 302 300
289 286 280 283 287 289 287 286 286 280 277 278 278 281 286 287 290 290 290 294 294 295 294 294 294 294 293 293 294 294 295 296 297 297 297 297 297 297 296 296 296 296 298 297
291 283 274 279 284 286 284 285 286 285 282 279 275 281 289 288 288 290 291 293 294 293 293 293 293 292 291 291 292 292 293 293 293 293 292 292 292 292 292 293 293 292 292 292
295 286 282 279 281 286 284 286 287 286 280 281 281 284 286 288 290 290 291 292 292 293 293 293 291 291 291 291 290 290 290 290 290 290 290 289 289 289 289 289 289 289 289 288
292 279 283 282 285 285 283 284 286 285 286 281 285 284 288 288 290 291 292 292 292 293 293 292 291 290 289 288 288 288 288 289 289 288 287 287 287 287 286 286 286 285 285 285
290 277 283 278 285 285 281 285 286 287 287 286 286 284 289 289 292 290 292 293 293 293 293 293 291 290 288 288 287 288 287 287 287 285 284 284 284 283 283 284 284 284 284 284
288 282 277 272 283 284 281 285 285 287 289 288 284 289 289 287 290 291 292 294 294 295 294 292 292 290 289 288 288 287 286 285 283 282 282 282 282 282 282 283 282 282 281 282
285 282 282 277 280 275 284 289 290 288 288 290 290 289 289 290 291 293 294 294 294 294 294 293 292 290 288 287 287 285 284 282 282 281 281 281 281 280 281 281 281 280 281 281
291 285 281 279 267 279 285 286 284 284 286 291 290 292 291 291 289 291 294 296 297 296 296 294 292 289 287 286 285 283 282 281 281 280 280 279 279 278 278 278 279 279 278 279
290 290 285 276 273 272 282 288 291 289 283 290 292 293 292 289 286 292 293 296 294 294 293 290 288 287 286 284 283 282 281 280 279 279 279 278 277 277 276 277 275 275 275 279
285 285 282 283 279 277 285 285 291 281 282 286 290 292 290 288 293 291 293 291 291 291 288 287 287 286 285 283 282 280 279 277 278 277 276 275 275 274 274 273 273 271 272 275
284 284 282 283 281 278 286 286 287 288 285 287 288 289 287 288 288 288 289 287 287 285 285 285 283 282 282 281 281 278 277 276 275 275 275 272 271 275 274 272 269 269 270 270
283 286 284 285 283 286 285 284 287 288 287 285 285 285 287 286 285 284 283 283 282 282 281 281 280 278 278 278 279 276 274 274 274 273 270 271 273 272 271 270 271 271 267 267
283 282 283 285 283 284 286 287 287 288 287 286 285 285 285 284 285 284 282 281 280 279 278 277 278 277 274 274 274 274 273 272 271 271 273 273 273 273 272 272 272 266 266 266
285 284 282 281 284 283 285 285 288 287 286 286 285 285 285 285 284 283 280 278 279 278 276 277 276 275 272 271 269 269 270 271 272 272 272 272 271 270 268 271 268 269 269 269
284 285 285 284 286 288 286 286 287 286 287 285 285 284 284 285 283 280 278 278 277 276 275 274 273 272 270 269 269 269 270 271 272 270 271 270 270 268 269 267 268 277 277 279

GFSCGP_sfc_thetae_129.txt.gz
Theta_e
290 287 284 285 288 289 288 287 285 288 290 289 289 287 290 290 289 291 291 291 292 294 300 300 312 318 320 322 324 324 324 324 326 324 327 328 328 328 327 327 327 327 325 322
287 284 289 291 289 287 286 284 283 287 290 289 286 288 290 289 291 291 292 291 292 292 294 294 297 308 316 321 324 324 325 325 326 327 326 326 328 328 329 328 327 327 326 323
285 289 291 290 287 286 283 283 283 286 287 287 285 285 286 290 290 292 292 294 294 294 295 294 294 298 309 317 321 323 325 325 326 326 323 320 323 325 325 325 326 326 326 324
287 291 290 287 286 287 283 287 286 286 284 280 282 278 282 285 288 289 293 292 295 293 293 294 294 295 299 306 308 315 320 323 325 324 323 323 323 321 322 322 324 327 326 325
285 286 286 286 286 288 286 288 287 285 282 279 279 278 281 282 285 288 292 292 293 292 292 294 296 298 301 304 304 304 303 308 321 323 324 323 321 321 319 323 324 325 325 325
287 289 289 289 289 289 288 286 285 282 280 277 280 280 280 283 287 286 288 289 290 291 294 295 300 303 303 304 305 305 304 303 302 319 323 322 321 320 319 322 322 322 323 323
284 285 287 289 287 287 285 282 276 276 275 276 278 277 284 286 286 287 289 289 288 290 293 296 298 299 300 302 303 304 302 299 299 300 322 323 321 320 320 320 322 320 319 319
281 279 286 288 288 285 283 284 277 272 273 276 279 277 283 287 288 288 287 288 289 291 293 295 296 297 298 301 301 302 304 304 305 303 314 322 322 321 319 321 320 318 317 315
281 280 286 288 289 290 285 282 284 278 268 274 277 280 286 286 287 287 288 289 290 292 293 294 295 296 297 298 300 302 303 303 304 310 311 316 315 313 314 312 311 310 309 307
286 281 286 288 289 289 287 289 282 280 270 270 276 276 281 283 286 287 289 289 290 291 292 294 294 295 296 297 298 299 300 301 301 304 307 308 309 310 309 309 307 306 305 305
287 285 283 286 285 284 284 283 282 282 280 274 271 277 283 287 287 288 288 289 290 291 292 293 293 294 295 294 295 296 298 299 299 300 300 300 300 300 301 301 300 302 301 301
288 286 281 282 285 288 286 286 286 282 277 277 277 278 283 285 286 287 288 288 290 291 292 292 292 293 292 293 294 295 295 296 296 296 296 296 296 296 295 295 296 295 294 294
289 283 278 281 284 285 283 283 284 283 281 278 275 279 287 286 287 287 287 287 290 291 291 291 291 291 291 292 292 293 293 293 293 293 293 293 293 293 292 292 291 291 290 290
294 285 283 280 282 285 282 284 285 285 280 280 280 280 283 284 286 288 288 286 288 290 291 290 290 290 290 291 291 291 291 291 291 291 291 290 289 290 289 289 288 288 287 287
290 281 282 282 284 286 285 284 285 284 286 281 284 282 284 285 286 287 287 288 289 290 290 290 290 290 289 289 289 289 289 289 289 289 288 287 287 287 286 285 285 284 284 284
288 277 282 281 283 284 283 284 286 286 286 286 284 283 287 286 286 286 290 289 289 289 290 291 291 290 290 290 289 289 289 287 287 286 286 285 285 284 283 284 283 283 282 282
285 280 276 278 281 283 279 284 284 286 287 287 282 288 288 285 286 288 289 289 290 291 292 292 292 293 292 290 290 288 287 285 285 284 284 284 284 283 283 282 282 281 281 281
285 285 282 277 280 274 283 287 288 286 287 289 289 287 287 288 288 289 290 290 291 292 292 293 293 293 291 289 288 286 285 284 284 283 283 283 282 282 281 280 280 279 279 280
289 284 278 278 269 279 284 283 283 282 285 288 287 290 287 288 286 289 289 290 293 294 294 295 294 293 289 288 286 285 284 283 283 282 282 281 281 280 279 278 278 278 279 279
287 289 285 278 278 274 282 288 287 287 281 288 289 290 289 286 284 290 290 290 291 292 292 292 291 288 287 287 286 285 283 282 282 282 281 280 279 278 276 277 276 274 276 279
282 283 283 282 279 276 284 285 287 280 282 286 287 289 287 286 290 289 289 289 289 289 290 289 289 288 287 286 286 285 283 282 282 280 279 278 277 276 276 276 273 275 277 278
283 282 282 282 279 277 284 285 284 287 285 287 286 287 286 286 286 287 289 288 288 287 284 286 285 284 283 285 285 283 282 281 279 278 277 275 274 277 276 275 275 275 276 276
283 286 283 285 283 285 285 285 287 287 287 285 285 286 287 286 285 286 286 283 282 281 282 279 281 279 279 282 285 282 279 278 276 275 274 272 271 273 274 274 275 274 275 276
283 284 285 285 283 282 285 286 286 286 285 286 286 285 285 285 286 285 281 283 281 278 279 275 278 277 276 275 278 280 277 276 275 273 272 272 273 272 276 277 277 276 276 275
284 285 282 280 282 283 284 285 286 286 286 286 286 286 285 285 284 284 279 277 279 278 275 276 276 276 274 273 274 276 275 276 275 274 273 273 274 276 274 275 275 276 276 277
285 284 284 282 286 285 286 286 286 286 285 284 284 284 284 284 285 281 278 278 275 274 273 273 273 273 271 272 272 273 275 276 274 273 273 274 275 274 274 275 276 279 279 280

GFSCGP_sfc_thetae_135.txt.gz
Theta_e
290 287 284 286 288 288 287 288 286 288 290 289 289 289 292 292 291 292 293 295 303 309 316 317 320 321 323 324 325 326 326 327 328 327 326 327 326 328 328 329 328 328 325 323
286 284 288 290 288 287 285 285 285 287 289 289 287 289 292 291 292 293 293 293 294 298 302 305 312 317 320 323 324 325 325 326 328 329 329 328 328 329 330 329 328 328 326 324
285 288 290 289 285 285 283 283 283 285 286 286 285 285 288 291 291 292 292 294 295 296 298 300 299 304 315 319 322 324 325 325 327 328 325 323 325 327 328 327 327 328 327 326
286 288 288 286 284 285 282 286 285 285 284 281 284 279 284 287 289 290 293 293 294 295 296 296 296 296 298 311 320 324 325 325 326 326 326 324 325 323 326 326 327 327 328 327
285 286 286 285 286 287 285 286 285 284 282 279 279 279 281 283 285 288 291 293 296 297 295 294 294 295 295 301 313 320 322 323 324 325 326 325 325 325 324 323 324 325 325 326
286 289 289 289 286 288 286 284 283 280 280 276 280 280 279 282 286 289 291 292 294 293 293 293 294 295 297 300 306 311 316 319 320 324 325 324 324 323 321 321 323 324 325 325
283 283 285 287 284 285 284 282 277 276 275 276 278 277 283 286 286 288 289 290 290 290 290 292 294 297 299 301 303 305 307 309 315 321 323 323 324 323 322 323 324 323 322 321
282 279 284 287 285 283 283 284 278 272 272 275 278 277 283 287 287 289 288 288 289 290 291 291 294 298 301 302 304 305 304 304 304 306 318 323 324 324 324 324 324 323 321 319
282 280 286 287 287 289 283 281 285 277 267 273 277 280 284 287 286 286 287 288 288 289 291 292 295 298 299 301 302 304 304 303 303 302 301 304 319 323 322 321 321 319 315 313
285 281 285 287 288 287 286 288 282 279 272 270 275 277 280 284 286 286 286 287 288 289 291 293 295 296 298 300 301 302 303 305 306 306 306 303 309 315 317 316 313 312 310 308
286 284 282 286 284 283 283 281 282 282 280 274 271 277 282 284 286 286 286 288 288 289 291 292 294 295 296 297 299 300 301 303 305 307 308 309 311 312 312 311 309 308 307 306
286 284 280 282 285 286 285 285 284 280 276 276 276 278 284 284 285 286 286 287 288 289 291 292 293 293 294 295 297 299 299 300 303 305 306 306 305 305 305 303 302 303 302 301
288 282 277 280 284 284 282 282 284 282 281 277 276 279 284 284 286 288 289 287 288 289 290 291 291 292 293 294 295 296 297 298 300 301 301 300 300 301 298 298 297 297 296 295
293 285 282 278 281 284 282 283 284 284 280 279 281 280 282 285 285 287 288 289 288 290 290 291 290 291 292 292 293 294 295 296 298 298 298 297 297 297 296 294 294 294 292 292
290 282 282 281 283 286 284 284 284 285 286 282 284 282 285 288 286 287 287 289 289 289 290 290 290 291 291 291 291 292 293 293 294 296 295 295 294 292 292 291 290 289 289 288
287 277 281 277 281 283 281 284 285 286 286 286 285 282 284 287 285 286 289 289 289 290 290 290 290 291 291 291 292 291 291 291 292 293 293 291 290 289 289 287 287 287 286 286
285 279 277 272 280 281 277 283 283 285 286 286 283 286 287 286 286 288 289 288 288 289 289 290 291 292 293 293 292 291 290 289 290 290 290 289 288 288 287 286 285 285 285 285
284 283 281 276 280 274 283 284 287 286 287 289 289 285 286 288 289 289 288 288 288 289 290 290 291 291 292 291 291 290 289 289 288 288 287 286 286 285 284 284 284 282 283 284
288 283 277 276 270 278 282 282 282 283 285 288 286 287 287 288 285 287 288 289 291 291 290 290 291 292 291 291 290 289 288 288 287 288 287 285 285 284 283 282 282 281 282 282
286 288 282 272 270 273 281 285 285 286 282 287 288 287 287 285 283 288 290 290 289 288 288 289 289 290 290 289 287 287 287 286 287 287 286 284 284 283 282 282 280 279 282 281
278 278 281 273 269 275 282 283 285 280 282 286 285 287 285 284 288 288 288 288 287 288 288 288 288 288 288 285 286 286 285 286 287 283 282 282 282 282 282 280 278 279 280 280
279 278 277 270 277 277 283 283 284 286 284 286 287 285 285 284 286 286 286 286 286 285 285 284 285 285 284 284 285 284 284 284 281 281 282 281 280 281 279 279 278 278 279 278
281 283 278 283 282 285 283 283 286 287 287 285 286 286 288 286 285 285 286 285 284 282 282 279 278 278 278 279 281 282 281 280 279 280 280 279 278 278 278 278 277 278 278 278
283 282 281 283 283 284 285 285 285 286 286 286 287 286 286 286 284 284 282 283 282 279 279 276 278 279 277 275 277 276 277 277 278 279 276 276 277 276 277 279 279 279 278 278
284 286 282 279 281 284 284 286 286 285 286 285 285 285 286 285 284 284 280 280 280 279 276 276 277 277 276 275 274 273 275 276 275 274 275 276 276 276 276 277 278 279 280 281
285 284 284 282 285 286 286 287 286 285 284 285 284 283 282 283 283 281 279 278 276 277 275 275 274 273 274 272 272 271 272 275 274 274 274 275 275 275 276 276 276 282 281 283

GFSCGP_sfc_thetae_141.txt.gz
Theta_e
298 294 293 301 305 308 305 303 301 303 302 299 298 300 302 305 302 304 306 308 311 313 318 323 326 328 329 331 332 333 333 334 334 333 330 328 328 330 331 332 333 332 331 329
292 292 300 305 308 307 305 302 302 303 303 298 302 301 303 303 303 304 305 306 308 312 315 319 323 326 328 329 331 331 331 333 334 334 333 331 328 331 333 335 334 333 332 331
288 298 303 302 303 299 302 300 302 301 296 296 295 295 298 302 303 304 305 306 307 308 312 316 320 323 327 328 330 331 332 333 334 335 334 333 333 333 331 332 332 332 332 331
292 303 298 298 297 301 297 303 301 294 294 292 297 292 302 302 300 301 303 304 305 306 309 313 318 321 324 327 331 331 332 333 334 335 333 330 329 327 330 332 332 333 332 332
290 292 295 294 297 301 298 297 295 294 292 292 291 289 296 302 298 300 302 305 306 307 308 308 312 317 321 326 328 331 331 332 334 335 334 333 329 331 333 332 332 332 333 332
291 295 297 299 300 298 295 293 293 293 292 285 290 289 291 296 296 300 302 304 306 308 309 310 309 311 314 322 328 330 330 330 332 333 334 333 332 331 331 331 330 331 331 331
288 290 295 298 292 294 294 291 285 283 284 283 288 289 292 298 300 301 301 304 306 308 309 310 309 306 309 312 318 325 328 328 330 331 331 332 332 332 331 331 330 330 330 330
286 282 290 295 295 291 291 292 287 280 281 285 284 283 291 298 301 302 302 302 302 301 304 304 306 308 307 307 309 313 318 323 326 329 329 331 331 331 331 331 330 330 330 330
289 287 293 294 295 295 291 289 294 285 281 284 287 290 295 298 298 298 298 299 300 301 302 302 303 304 304 307 308 309 311 315 319 324 327 328 329 329 328 329 330 329 330 330
294 283 290 290 293 295 293 295 286 287 281 279 285 285 288 294 295 297 297 298 300 302 302 303 302 304 305 307 308 310 311 312 317 319 322 322 324 325 325 325 325 326 325 322
295 288 285 289 288 289 289 288 290 290 288 284 281 286 294 293 294 294 296 297 298 300 301 302 303 305 306 308 310 311 312 313 313 314 314 315 318 321 323 323 324 323 320 319
295 290 282 285 290 291 293 291 290 285 283 285 283 286 293 294 294 294 296 297 297 299 300 302 303 305 306 308 309 310 311 311 312 313 313 313 313 311 311 318 319 318 316 317
293 288 282 283 287 289 288 291 292 292 290 284 283 286 293 293 293 296 296 298 297 299 300 301 303 303 304 306 308 309 310 310 310 312 311 312 310 310 310 312 313 312 313 310
296 290 287 282 285 289 285 289 291 290 286 286 286 290 292 293 294 295 297 297 297 299 300 301 302 303 305 306 306 307 308 310 309 310 310 308 309 309 309 309 307 307 306 304
295 287 288 288 291 290 287 288 288 287 290 286 289 289 293 296 295 296 297 297 296 297 298 301 302 303 304 304 304 305 307 308 308 307 307 307 305 304 305 302 300 298 298 298
294 287 287 283 287 289 286 288 288 289 290 291 291 291 295 298 297 296 296 296 296 297 298 300 301 301 302 302 303 303 304 306 306 304 305 306 304 297 295 294 292 292 292 293
291 288 287 283 286 286 284 287 288 289 291 291 287 292 296 294 294 295 297 297 297 297 298 298 299 300 301 302 303 302 303 304 303 301 301 299 296 293 293 292 291 291 291 291
289 288 287 282 285 277 288 294 293 290 292 293 293 294 296 296 297 299 301 298 297 296 297 298 299 299 301 303 303 303 302 301 298 297 297 295 293 291 290 289 289 288 289 289
293 288 282 280 280 286 288 289 290 288 289 294 293 294 295 296 295 296 298 299 298 297 297 298 299 299 299 300 301 299 296 297 295 295 294 291 291 289 288 287 287 288 288 287
291 292 287 283 281 278 287 292 294 293 284 295 295 294 295 295 289 294 299 295 296 296 295 295 295 296 296 296 295 294 293 294 294 293 293 291 290 289 288 288 287 286 287 286
285 286 285 285 283 288 289 290 294 283 286 292 295 295 295 292 296 295 295 294 293 292 292 292 293 291 290 290 291 291 292 291 292 290 289 289 289 288 289 287 286 286 286 285
285 284 284 285 283 281 290 289 288 293 292 292 293 294 294 295 293 293 293 292 292 290 288 287 288 287 287 288 289 289 289 288 288 287 287 286 287 287 287 287 285 285 286 285
285 289 287 288 288 292 291 292 294 296 294 293 294 293 294 293 292 293 292 290 288 286 285 285 286 286 285 285 285 287 285 285 285 284 285 285 286 286 286 286 285 285 285 286
290 292 291 290 290 291 291 292 293 294 293 293 294 293 294 291 289 287 287 286 285 284 283 284 285 284 282 282 282 282 283 283 284 284 284 284 285 285 285 286 286 286 285 285
290 290 288 287 287 290 291 292 292 290 290 288 287 289 291 289 287 286 284 283 284 283 282 282 282 282 280 281 280 280 280 282 284 284 282 283 284 284 284 284 285 285 286 287
280 281 288 289 291 292 291 291 291 289 288 288 286 284 284 287 285 283 281 281 281 280 280 280 279 279 279 279 279 278 279 280 281 282 281 282 282 282 282 283 283 286 287 287